Location: Gull Harbor
(47.1000°N, 122.9000°W)
Time: 20:04:39
(UTC-08:00)

N. Korean satellite - Pass Details

Date: 26 January 2018
Orbit: 459 x 514 km, 97.2° (Epoch: 23 February)

Event Time Altitude Azimuth Distance (km) Brightness Sun altitude
Rises 06:05:43 0° 27° (NNE) 2,495 10.4 -16.6°
Reaches altitude 10° 06:08:14 10° 47° (NE) 1,617 9.7 -16.2°
Maximum altitude 06:10:44 18° 93° (E) 1,188 9.6 -15.8°
Drops below altitude 10° 06:13:13 10° 139° (SE) 1,616 10.0 -15.4°
Sets 06:15:43 0° 159° (SSE) 2,493 10.7 -14.9°
